Regional Weather Roundup
Issued by NWS Charleston, WV

Home | Current Version | Previous Version | Text Only | Print | Product List | Glossary Off
Versions: 1 2 3 4 5 6 7 8 9 10 11 12 13 14 15 16 17 18 19 20 21 22 23 24 25 26 27 28 29 30 31 32 33 34 35 36 37 38 39 40 41 42 43 44 45 46 47 48 49 50

884
ASUS41 KRLX 250210
RWRRLX
West Virginia Regional Weather Roundup
National Weather Service Charleston WV
1000 PM EDT THU MAY 24 2018

Note: "fair" indicates few or no clouds below 12,000 feet with no
significant weather and/or obstructions to visibility.

WVZ003-250300-
Northern Panhandle of West Virginia

CITY           SKY/WX    TMP DP  RH WIND       PRES   REMARKS
WHEELING       FAIR      69  48  47 NE5       30.12S
$$

WVZ009-250300-
Northwest West Virginia

CITY           SKY/WX    TMP DP  RH WIND       PRES   REMARKS
PARKERSBURG    FAIR      67  60  78 CALM      30.12S
$$

WVZ006-250300-
Western West Virginia

CITY           SKY/WX    TMP DP  RH WIND       PRES   REMARKS
HUNTINGTON     MOCLDY    73  60  63 CALM      30.08S
$$

WVZ015-250300-
West Central West Virginia

CITY           SKY/WX    TMP DP  RH WIND       PRES   REMARKS
CHARLESTON     FAIR      72  66  81 CALM      30.09S
$$

WVZ022-031-250300-
North Central West Virginia

CITY           SKY/WX    TMP DP  RH WIND       PRES   REMARKS
CLARKSBURG     FAIR      69  52  54 CALM      30.12R
MORGANTOWN     FAIR      71  51  49 CALM      30.15R
$$

WVZ025-035-042-045-250300-
Southern West Virginia

CITY           SKY/WX    TMP DP  RH WIND       PRES   REMARKS
BECKLEY        FAIR      68  56  65 SE8       30.20R
LOGAN          MOCLDY    75  64  69 CALM      30.12S
BLUEFIELD      FAIR      68  59  73 CALM      30.22S
LEWISBURG      FAIR      69  56  63 S3        30.22S
$$

WVZ047-250300-
Northern Mountains of West Virginia

CITY           SKY/WX    TMP DP  RH WIND       PRES   REMARKS
ELKINS         FAIR      67  50  54 SE5       30.18R
$$

WVZ052-250300-
Eastern Panhandle of West Virginia

CITY           SKY/WX    TMP DP  RH WIND       PRES   REMARKS
MARTINSBURG    FAIR      66  52  60 SW5       30.14R
PETERSBURG     FAIR      61  56  82 CALM      30.16S
$$




USA.gov is the U.S. government's official web portal to all federal, state and local government web resources and services.